Ely, MN

11:39 AM CST on January 23, 2017 (GMT -0600)
Ely Municipal

Weather History for KELO - March, 2013

Change the Weather History Date:

Monday, March 25, 2013

  Actual Average Record
Temperature  
Mean Temperature 21 °F -  
Max Temperature 37 °F 37 °F 60 °F (2007)
Min Temperature 5 °F 17 °F -13 °F (2002)
Degree Days  
Heating Degree Days 44    
Moisture  
Dew Point 14 °F    
Average Humidity 68    
Maximum Humidity 92    
Minimum Humidity 38    
Precipitation  
Precipitation 0.00 in - - ()
Sea Level Pressure  
Sea Level Pressure 30.09 in    
Wind  
Wind Speed 2 mph (North)    
Max Wind Speed 12 mph    
Max Gust Speed 20 mph    
Visibility 10 miles    
Events      
Averages and records for this station are not official NWS values.
T = Trace of Precipitation, MM = Missing Value Source: NWS Daily Summary

Daily Weather History Graph

Daily Weather History Graph

Search for Another Location

Airport or City:

Trip Planner

Search our weather history database for the weather conditions in past years. The results will help you decide how hot, cold, wet, or windy it might be!

Date:

Astronomy

Mar. 25, 2013 Rise Set
Actual Time 6:59 AM CDT 7:27 PM CDT
Civil Twilight 6:28 AM CDT 7:58 PM CDT
Nautical Twilight 5:51 AM CDT 8:35 PM CDT
Astronomical Twilight 5:13 AM CDT 9:13 PM CDT
Moon 5:56 PM CDT (3/25) 5:49 AM CDT (3/25)
Length of Visible Light 13h 30m
Length of Day
12h 28m
Waxing Gibbous, 96% of the Moon is Illuminated
Mar 25
Waxing Gibbous
Mar 27
Full
Apr 2
Last Quarter
Apr 10
New
Apr 18
First Quarter

Hourly Weather History & Observations

Time (CDT) Temp. Windchill Dew Point Humidity Pressure Visibility Wind Dir Wind Speed Gust Speed Precip Events Conditions
12:13 AM 19.4 °F - 12.2 °F 74% 30.06 in 10.0 mi Calm Calm - N/A   Clear
12:33 AM 17.6 °F - 12.2 °F 79% 30.06 in 10.0 mi Calm Calm - N/A   Clear
12:53 AM 15.8 °F - 10.4 °F 79% 30.06 in 10.0 mi Calm Calm - N/A   Clear
1:12 AM 12.2 °F - 10.4 °F 92% 30.05 in 10.0 mi Calm Calm - N/A   Clear
1:33 AM 12.2 °F - 8.6 °F 85% 30.05 in 10.0 mi Calm Calm - N/A   Clear
1:52 AM 12.2 °F - 8.6 °F 85% 30.05 in 10.0 mi Calm Calm - N/A   Clear
2:13 AM 10.4 °F - 8.6 °F 92% 30.05 in 10.0 mi Calm Calm - N/A   Clear
2:33 AM 12.2 °F - 8.6 °F 85% 30.05 in 10.0 mi Calm Calm - N/A   Clear
2:52 AM 10.4 °F - 6.8 °F 85% 30.05 in 10.0 mi Calm Calm - N/A   Clear
3:13 AM 8.6 °F - 6.8 °F 92% 30.05 in 10.0 mi Calm Calm - N/A   Clear
3:33 AM 8.6 °F - 5.0 °F 85% 30.05 in 10.0 mi Calm Calm - N/A   Clear
3:52 AM 8.6 °F - 3.2 °F 79% 30.05 in 10.0 mi Calm Calm - N/A   Clear
4:13 AM 12.2 °F - 8.6 °F 85% 30.05 in 10.0 mi Calm Calm - N/A   Clear
4:33 AM 12.2 °F 6.1 °F 8.6 °F 85% 30.05 in 10.0 mi NNE 3.5 mph - N/A   Clear
4:52 AM 12.2 °F - 8.6 °F 85% 30.05 in 10.0 mi Calm Calm - N/A   Clear
5:13 AM 12.2 °F - 10.4 °F 92% 30.05 in 10.0 mi Calm Calm - N/A   Clear
5:33 AM 12.2 °F - 8.6 °F 85% 30.06 in 10.0 mi Calm Calm - N/A   Clear
5:52 AM 12.2 °F - 8.6 °F 85% 30.06 in 10.0 mi Calm Calm - N/A   Clear
6:13 AM 10.4 °F - 8.6 °F 92% 30.07 in 10.0 mi Calm Calm - N/A   Clear
6:32 AM 12.2 °F - 8.6 °F 85% 30.08 in 10.0 mi Calm Calm - N/A   Clear
6:53 AM 6.8 °F - 3.2 °F 85% 30.08 in 10.0 mi Calm Calm - N/A   Clear
7:13 AM 5.0 °F - 1.4 °F 85% 30.09 in 10.0 mi Calm Calm - N/A   Scattered Clouds
7:32 AM 8.6 °F - 6.8 °F 92% 30.09 in 10.0 mi Calm Calm - N/A   Mostly Cloudy
7:53 AM 8.6 °F - 6.8 °F 92% 30.10 in 10.0 mi Calm Calm - N/A   Overcast
8:13 AM 10.4 °F - 6.8 °F 85% 30.10 in 10.0 mi Calm Calm - N/A   Overcast
8:32 AM 12.2 °F - 10.4 °F 92% 30.10 in 10.0 mi Calm Calm - N/A   Overcast
8:53 AM 15.8 °F - 12.2 °F 86% 30.10 in 10.0 mi Calm Calm - N/A   Overcast
9:13 AM 19.4 °F 14.3 °F 15.8 °F 86% 30.10 in 10.0 mi NNE 3.5 mph - N/A   Overcast
9:32 AM 23.0 °F 18.4 °F 17.6 °F 80% 30.10 in 10.0 mi NNE 3.5 mph - N/A   Overcast
9:53 AM 24.8 °F 16.1 °F 17.6 °F 74% 30.10 in 10.0 mi NNE 8.1 mph - N/A   Overcast
10:13 AM 26.6 °F 19.1 °F 17.6 °F 69% 30.10 in 10.0 mi NNE 6.9 mph - N/A   Overcast
10:32 AM 26.6 °F 19.1 °F 17.6 °F 69% 30.10 in 10.0 mi NNE 6.9 mph - N/A   Mostly Cloudy
10:53 AM 28.4 °F 22.2 °F 17.6 °F 64% 30.10 in 10.0 mi North 5.8 mph - N/A   Scattered Clouds
11:13 AM 28.4 °F 20.4 °F 17.6 °F 64% 30.10 in 10.0 mi NE 8.1 mph - N/A   Mostly Cloudy
11:32 AM 28.4 °F 21.2 °F 17.6 °F 64% 30.10 in 10.0 mi NNE 6.9 mph - N/A   Overcast
11:53 AM 30.2 °F 25.4 °F 17.6 °F 60% 30.10 in 10.0 mi North 4.6 mph - N/A   Overcast
12:13 PM 30.2 °F 21.3 °F 17.6 °F 60% 30.09 in 10.0 mi NNE 10.4 mph 16.1 mph N/A   Overcast
12:30 PM 33.8 °F 25.8 °F 17.6 °F 52% 30.10 in 10.0 mi North 10.4 mph 16.1 mph N/A   Mostly Cloudy
12:53 PM 32.0 °F 25.6 °F 17.6 °F 55% 30.09 in 10.0 mi NNW 6.9 mph 17.3 mph N/A   Mostly Cloudy
1:12 PM 33.8 °F 26.4 °F 17.6 °F 52% 30.09 in 10.0 mi NNW 9.2 mph 18.4 mph N/A   Mostly Cloudy
1:33 PM 33.8 °F 27.7 °F 17.6 °F 52% 30.09 in 10.0 mi North 6.9 mph - N/A   Mostly Cloudy
1:53 PM 35.6 °F 30.7 °F 15.8 °F 44% 30.08 in 10.0 mi NNE 5.8 mph - N/A   Scattered Clouds
2:12 PM 35.6 °F 29.2 °F 15.8 °F 44% 30.08 in 10.0 mi NNW 8.1 mph 19.6 mph N/A   Scattered Clouds
2:33 PM 37.4 °F 32.1 °F 15.8 °F 41% 30.08 in 10.0 mi North 6.9 mph - N/A   Mostly Cloudy
2:53 PM 37.4 °F 30.8 °F 15.8 °F 41% 30.07 in 10.0 mi NNE 9.2 mph - N/A   Scattered Clouds
3:12 PM 37.4 °F 30.3 °F 15.8 °F 41% 30.08 in 10.0 mi North 10.4 mph - N/A   Scattered Clouds
3:32 PM 37.4 °F 31.4 °F 15.8 °F 41% 30.08 in 10.0 mi NNE 8.1 mph - N/A   Mostly Cloudy
3:53 PM 35.6 °F 29.9 °F 15.8 °F 44% 30.08 in 10.0 mi NNE 6.9 mph - N/A   Mostly Cloudy
4:12 PM 37.4 °F 30.8 °F 15.8 °F 41% 30.07 in 10.0 mi NNE 9.2 mph - N/A   Mostly Cloudy
4:33 PM 35.6 °F 30.7 °F 15.8 °F 44% 30.08 in 10.0 mi North 5.8 mph - N/A   Overcast
4:53 PM 35.6 °F 27.5 °F 15.8 °F 44% 30.08 in 10.0 mi NNE 11.5 mph 17.3 mph N/A   Overcast
5:12 PM 35.6 °F 29.9 °F 15.8 °F 44% 30.09 in 10.0 mi North 6.9 mph - N/A   Overcast
5:33 PM 35.6 °F 30.7 °F 15.8 °F 44% 30.09 in 10.0 mi North 5.8 mph - N/A   Overcast
5:53 PM 35.6 °F 29.9 °F 12.2 °F 38% 30.10 in 10.0 mi North 6.9 mph - N/A   Overcast
6:13 PM 35.6 °F 29.2 °F 14.0 °F 41% 30.10 in 10.0 mi NNE 8.1 mph - N/A   Overcast
6:33 PM 33.8 °F 28.6 °F 15.8 °F 48% 30.11 in 10.0 mi North 5.8 mph - N/A   Overcast
6:52 PM 33.8 °F 28.6 °F 15.8 °F 48% 30.11 in 10.0 mi NNE 5.8 mph - N/A   Overcast
7:13 PM 33.8 °F 29.6 °F 17.6 °F 52% 30.12 in 10.0 mi NNE 4.6 mph - N/A   Overcast
7:33 PM 33.8 °F 30.8 °F 17.6 °F 52% 30.13 in 10.0 mi NNE 3.5 mph - N/A   Overcast
7:52 PM 32.0 °F - 17.6 °F 55% 30.13 in 10.0 mi Calm Calm - N/A   Overcast
8:13 PM 32.0 °F - 19.4 °F 60% 30.14 in 10.0 mi Calm Calm - N/A   Overcast
8:33 PM 32.0 °F - 19.4 °F 60% 30.14 in 10.0 mi Calm Calm - N/A   Overcast
8:53 PM 30.2 °F - 19.4 °F 64% 30.14 in 10.0 mi Calm Calm - N/A   Overcast
9:12 PM 30.2 °F - 19.4 °F 64% 30.15 in 10.0 mi Calm Calm - N/A   Overcast
9:33 PM 30.2 °F 26.7 °F 19.4 °F 64% 30.15 in 10.0 mi NNE 3.5 mph - N/A   Overcast
9:52 PM 30.2 °F 23.4 °F 21.2 °F 69% 30.16 in 7.0 mi NNE 6.9 mph - N/A   Overcast
10:13 PM 30.2 °F - 23.0 °F 75% 30.16 in 10.0 mi Calm Calm - N/A   Overcast
10:33 PM 30.2 °F - 21.2 °F 69% 30.16 in 10.0 mi Calm Calm - N/A   Overcast
10:53 PM 30.2 °F - 21.2 °F 69% 30.16 in 10.0 mi Calm Calm - N/A   Overcast
11:13 PM 28.4 °F - 21.2 °F 74% 30.16 in 10.0 mi Calm Calm - N/A   Overcast
11:33 PM 28.4 °F 24.6 °F 21.2 °F 74% 30.16 in 10.0 mi NW 3.5 mph - N/A   Overcast
11:53 PM 28.4 °F - 21.2 °F 74% 30.16 in 10.0 mi Calm Calm - N/A   Overcast